This demonstration page uses our WeatherBlox Daily Observations layout. Learn more.

Left ArrowRight Arrow

Hourly Observations for June 16, 2018

Temp ( °F °C ) Dew Point ( °F °C ) Humidity (%) Winds ( mph kmh ) Pressure ( in mb ) Visibility ( mi km ) Precip ( " mm )
12:57 am 00:57 Clear 83 28.3 60 15.6 46 46 SSE 9 15 29.67 1005 10 16 0.00 0.00
1:57 am 01:57 Clear 81 27.2 63 17.2 54 54 SE 7 11 29.69 1005 10 16 0.00 0.00
2:57 am 02:57 Clear 80 26.7 64 17.8 58 58 S 25 41 29.63 1003 10 16 0.00 0.00
3:57 am 03:57 Clear 77 25 63 17.2 62 62 S 10 17 29.63 1003 10 16 0.00 0.00
5:57 am 05:57 Clear 77 25 62 16.7 60 60 S 15 24 29.66 1004 10 16 0.00 0.00
6:57 am 06:57 Sunny 76 24.4 63 17.2 64 64 S 15 24 29.68 1005 10 16 0.00 0.00
7:57 am 07:57 Sunny 77 25 65 18.3 66 66 S 18 30 29.67 1005 10 16 0.00 0.00
8:57 am 08:57 Sunny 80 26.7 65 18.3 60 60 S 24 39 29.66 1004 10 16 0.00 0.00
9:57 am 09:57 Mostly Sunny 85 29.4 65 18.3 51 51 S 20 31 29.66 1005 9 14 0.00 0.00
10:57 am 10:57 Hazy 87 30.6 65 18.3 48 48 S 21 33 29.66 1005 6 10 0.00 0.00
11:57 am 11:57 Hazy 91 32.8 65 18.3 42 42 S 26 43 29.65 1004 4 6 0.00 0.00
12:57 pm 12:57 Sunny 94 34.4 65 18.3 38 38 SSW 23 37 29.65 1004 10 16 0.00 0.00
1:57 pm 13:57 Sunny 94 34.4 65 18.3 38 38 S 22 35 29.64 1004 10 16 0.00 0.00
2:57 pm 14:57 Hazy 94 34.4 64 17.8 37 37 S 26 43 29.64 1004 4 6 0.00 0.00
3:45 pm 15:45 Hazy 93 34 64 18 39 39 S 23 37 29.56 1001 1 2 0.00 0.00
3:55 pm 15:55 Sunny 91 33 63 17 38 38 S 28 44 29.59 1002 10 16 0.00 0.00
3:57 pm 15:57 Sunny 92 33.3 63 17.2 38 38 S 29 46 29.65 1004 10 16 0.00 0.00
4:57 pm 16:57 Sunny 90 32.2 63 17.2 41 41 S 24 39 29.65 1004 10 16 0.00 0.00
5:57 pm 17:57 Sunny 91 32.8 63 17.2 39 39 S 22 35 29.65 1004 10 16 0.00 0.00
6:57 pm 18:57 Mostly Sunny 92 33.3 64 17.8 40 40 SSW 21 33 29.65 1004 10 16 0.00 0.00
7:57 pm 19:57 Sunny 89 31.7 63 17.2 42 42 S 20 31 29.65 1004 10 16 0.00 0.00
8:57 pm 20:57 Sunny 86 30 64 17.8 48 48 SSE 17 28 29.65 1004 10 16 0.00 0.00
9:57 pm 21:57 Clear 84 28.9 63 17.2 49 49 SSE 18 30 29.67 1005 10 16 0.00 0.00
10:57 pm 22:57 Clear 82 27.8 62 16.7 51 51 SSE 16 26 29.70 1006 10 16 0.00 0.00
11:57 pm 23:57 Clear 82 27.8 63 17.2 53 53 S 18 30 29.70 1006 10 16 0.00 0.00

Powered by AerisWeather